Regional Weather Roundup
Issued by NWS Charleston, SC

Home | Current Version | Previous Version | Text Only | Print | Product List | Glossary On
Versions: 1 2 3 4 5 6 7 8 9 10 11 12 13 14 15 16 17 18 19 20 21 22 23 24 25 26 27 28 29 30 31 32 33 34 35 36 37 38 39 40 41 42 43 44 45 46 47 48 49 50
000
ASUS42 KCHS 271326
RWRCHS

REGIONAL WEATHER ROUNDUP
NATIONAL WEATHER SERVICE CHARLESTON SC
800 AM EST MON FEB 27 2017

NOTE: "FAIR" INDICATES FEW OR NO CLOUDS BELOW 12,000 FEET WITH NO
SIGNIFICANT WEATHER AND/OR OBSTRUCTIONS TO VISIBILITY.

NOT ALL STATIONS ARE QUALITY CONTROLLED. USE DATA WITH CAUTION...
ESPECIALLY DEWPOINT OBSERVATIONS.

SCZ027-030-031-034>040-042>050-271400-
...SOUTHEAST SOUTH CAROLINA...

CITY           SKY/WX    TMP DP  RH WIND       PRES   REMARKS
N CHARLESTON   MOSUNNY   55  44  66 E8        30.32S
WATERFRONT PRK   N/A     61  48  62 SE16      30.31S
MOUNT PLEASANT LGT RAIN  59  46  63 SE6       30.33R
JOHNS ISLAND   FAIR      63  46  55 E10       30.32S
PINOPOLIS        N/A     48  41  76 VRB2      30.25R
MONCKS CORNER  FAIR      50  41  71 NE3       30.34R
SUMMERVILLE    FAIR      45  43  93 CALM      30.35R
BEAUFORT MCAS  SUNNY     60  48  64 SE8       30.29F
BEAUFORT ARPT  FAIR      61  45  55 E9G18     30.30S
HILTON HEAD IS SUNNY     61  48  63 E9        30.30F
WALTERBORO     SUNNY     52  43  71 E7        30.34R
ALLENDALE      FAIR      48  41  76 CALM      30.33R

...SOUTHERN MIDLANDS AND PEE DEE...

CITY           SKY/WX    TMP DP  RH WIND       PRES   REMARKS
GEORGETOWN     FAIR      55  45  67 E8        30.35S
KINGSTREE      FAIR      41  37  87 CALM      30.39R
ORANGEBURG     SUNNY     44  39  82 NE3       30.35R
BARNWELL       FAIR      48  43  81 CALM      30.35R
AIKEN          FAIR      39  36  87 NE3       30.38R
MANNING        FAIR      37  36  93 MISG      30.37R
COLUMBIA       MOSUNNY   37  33  85 CALM      30.36R
SUMTER         SUNNY     40  37  86 NE5       30.35R WCI  37
FLORENCE       SUNNY     42  38  85 N5        30.39R
MYRTLE BEACH   SUNNY     55  39  54 SE15      30.37R
N MYRTLE BEACH CLOUDY    55  40  56 E9        30.36R

$$

GAZ063-065-086>088-099>101-113>116-118-119-134>141-150-271400-
...SOUTHEAST GEORGIA...

CITY           SKY/WX    TMP DP  RH WIND       PRES   REMARKS
SAVANNAH ARPT  MOSUNNY   57  48  72 E8        30.29F
HUNTER AAF     SUNNY     58  52  80 E8        30.26F
FORT STEWART   MOSUNNY   52  45  75 E3        30.26S
STATESBORO     SUNNY     52  48  86 CALM      30.31R
SYLVANIA       CLOUDY   N/A N/A N/A E3        30.33R
CLAXTON        FAIR     N/A N/A N/A CALM      30.31R

...CSRA...CENTRAL AND FAR SOUTHEAST GEORGIA...

CITY           SKY/WX    TMP DP  RH WIND       PRES   REMARKS
THOMSON        SUNNY     40  38  92 CALM      30.39R
AUGUSTA-BUSH   CLOUDY    39  36  89 CALM      30.34R
AUGUSTA-DANIEL SUNNY     45  34  65 CALM      30.35R
SWAINSBORO     FAIR      50  43  76 E5        30.32R
VIDALIA        MOSUNNY   54  46  76 E3        30.31R
EASTMAN        FAIR      45  44  96 CALM      30.32R
HAZLEHURST     FAIR      56  45  66 CALM      30.28R
ALMA           MOSUNNY   51  44  77 CALM      30.27R
WAYCROSS       SUNNY     55  50  83 CALM      30.28R
JESUP          FAIR      54  45  71 CALM      30.28R
BAXLEY         FAIR      54  46  76 CALM      30.28R
BRUNSWICK      MOSUNNY   63  59  88 E6        30.28S
SAINT SIMONS   SUNNY     65  57  75 E8        30.27S

$$

SCZ027-028-034-036>038-045-046-048>050-GAZ119-141-271400-
...LAKE AND SUPPLEMENTAL COASTAL OBSERVATIONS...

STATION/POSITION TIME  TEMP    WIND        PRES    WAVE   SWELL
                       AIR SEA DIR/SP/G            HT/PER HT/PER/DIR
                 (UTC) (F)     (DEG/KT/KT) (MB)    (FT/S) (FT/S/D)
WINYAH BAY       1245   59     110/ 12     1027.0S
LAKE MURRAY      1220   44      50/  2/  2 1027.1
ACE BASIN NERRS  1245   56     100/  3     1026.0S
FORT PULASKI     1300   62 62  110/ 13/ 18 1025.7
SAPELO ISLAND    1300   64     100/  6     1025.0

$$

ANZ835-935-AMZ111-154-330-350-352-354-370-450-454-472-271400-
...C-MAN AND BUOY OBSERVATIONS...

STATION/POSITION TIME  TEMP    WIND        PRES    WAVE   SWELL
                       AIR SEA DIR/SP/G            HT/PER HT/PER/DIR
                 (UTC) (F)     (DEG/KT/KT) (MB)    (FT/S) (FT/S/D)
BUOY 41004       1250   64 69  100/ 16/ 17 1026.5F   3/ 8   2/100/ 8
BUOY 41008       1250   65 62  120/ 12/ 14 1025.0R   2/ 9   2/ 90/ 9
FOLLY BEACH CMAN 1300   62     110/ 15/ 16 1027.3R
CAPERS NEARSHORE 1208   61 60  120/ 14/ 19 1026.7S
FRIPP NEARSHORE  1308   62 61  110/ 14/ 19 1025.8F


STATION/POSITION TIME  TEMP    WIND        PRES    WAVE   SWELL
                       AIR SEA DIR/SP/G            HT/PER HT/PER/DIR
                 (UTC) (F)     (DEG/KT/KT) (MB)    (FT/S) (FT/S/D)
5E ST. MARYS GA  1300      64                N/A     3/ 8
FRYING PAN BUOY  1300   63 69  100/ 14/ 17 1028.0
BUOY 41025       1250   60 71   50/  4/  8 1031.1R   3/ 8   3/110/ 8
CAPE LOOKOUT NC  1300   58      60/ 10/ 12 1029.6F
BUOY 41002       1250   65 70   80/ 14/ 16 1028.4R   4/ 8   3/ 60/ 8
BUOY 41010       NOT AVBL
ST AUGUSTINE FL  1300   68 65  110/ 11/ 12 1025.7R


$$




USA.gov is the U.S. government's official web portal to all federal, state and local government web resources and services.